Regional Weather Roundup
Issued by NWS

Home | Current Version | Previous Version | Graphics & Text | Print | Product List | Glossary On
Versions: 1 2 3 4 5 6 7 8 9 10 11 12 13 14 15 16 17 18 19 20 21 22 23 24 25 26 27 28 29 30 31 32 33 34 35 36 37 38 39 40 41 42 43 44 45 46 47 48 49 50
968
ASUS43 KMKX 150659
RWRWI

WISCONSIN REGIONAL WEATHER ROUNDUP
NATIONAL WEATHER SERVICE MILWAUKEE/SULLIVAN WI
100 AM CST FRI DEC 15 2017

NOTE: "FAIR" INDICATES FEW OR NO CLOUDS BELOW 12,000 FEET WITH NO
SIGNIFICANT WEATHER AND/OR OBSTRUCTIONS TO VISIBILITY.

WIZ001-002-006>008-014>016-023>028-150800-
NORTHWEST WISCONSIN

CITY           SKY/WX    TMP DP  RH WIND       PRES   REMARKS
SUPERIOR ARPT  CLOUDY    16   8  72 W7        29.92F WCI   6
ASHLAND        CLOUDY    15   9  76 W8        29.87F WCI   4
HAYWARD        CLOUDY    16   9  74 VRB5      29.87F WCI   9
SIREN          FLURRIES  18  13  79 NW12      29.91F WCI   6
CUMBERLAND     LGT SNOW  19  14  79 W13       29.88F VSB 1   WCI   7
RICE LAKE      FLURRIES  20  15  81 CALM      29.90F
CHETEK         CLOUDY    19  15  82 W6        29.89F WCI  11
LADYSMITH      LGT SNOW  18  15  86 W6        29.87F WCI  10
EAU CLAIRE     FLURRIES  21  15  78 W9        29.91F WCI  11
MENOMONIE      CLOUDY    22  14  73 W10G17    29.93S WCI  11
NEW RICHMOND   CLOUDY    20  13  73 W14       29.93S WCI   7
OSCEOLA        CLOUDY    21  14  75 W12G17    29.96F WCI   9
$$

WIZ003>005-009-010-017-018-150800-
NORTH CENTRAL WISCONSIN

CITY           SKY/WX    TMP DP  RH WIND       PRES   REMARKS
MANITOWISH WTR LGT SNOW  14  13  96 W6        29.79F WCI   5
ARBOR VITAE    LGT SNOW  17  14  88 W3        29.79F
WOODRUFF       LGT SNOW  17  14  88 W3        29.79F
RHINELANDER    LGT SNOW  15  12  88 W9        29.79F FOG     WCI   3
EAGLE RIVER    LGT SNOW  15  10  83 W8        29.77F WCI   3
LAND O LAKES   LGT SNOW  15  12  88 W5        29.77F WCI   7
PHILLIPS       LGT SNOW  15  13  92 CALM      29.81F
TOMAHAWK       LGT SNOW  15  12  86 W6        29.82F WCI   7
MEDFORD        LGT SNOW  16  12  86 W8        29.84S WCI   5
MERRILL        FLURRIES  17  14  88 W7        29.84F WCI   7
$$

WIZ029-030-035-036-043>047-150800-
CENTRAL WISCONSIN

CITY           SKY/WX    TMP DP  RH WIND       PRES   REMARKS
WAUSAU         FLURRIES  17  14  88 W8        29.83F WCI   7
MOSINEE        FLURRIES  19  16  86 W10       29.86F WCI   8
MARSHFIELD     FLURRIES  18  13  80 W9        29.85F WCI   7
STEVENS POINT  FLURRIES  18  13  82 W6        29.87F WCI   9
WAUPACA        CLOUDY    24  17  77 W10G17    29.88F WCI  13
WAUTOMA        LGT SNOW  21  18  88 W9        29.90F FOG     WCI  11
WISC RAPIDS    CLOUDY    20  11  68 W9        29.90F WCI   9
CAMP DOUGLAS   NOT AVBL
$$

WIZ011>013-019>022-031-037>040-048>050-150800-
NORTHEAST WISCONSIN

CITY           SKY/WX    TMP DP  RH WIND       PRES   REMARKS
ANTIGO         LGT SNOW  16  13  90 W9        29.81F WCI   4
SHAWANO        LGT SNOW  22  18  83 W3        29.86F
OCONTO         CLOUDY    20  17  88 SW7       29.86F WCI  11
STURGEON BAY   LGT SNOW  19  18  93 SW12      29.86F FOG     WCI   7
GREEN BAY      LGT SNOW  21  16  81 SW8       29.87F WCI  11
MANITOWOC      FLURRIES  21  14  74 SW7       29.89F WCI  12
APPLETON       FLURRIES  21  14  73 W9        29.86F WCI  11
CLINTONVILLE   FLURRIES  21  16  79 SW6       29.87F WCI  14
OSHKOSH        CLOUDY    22  15  75 SW6       29.88F WCI  14
$$

WIZ032>034-041-042-053>061-150800-
SOUTHWEST WISCONSIN

CITY           SKY/WX    TMP DP  RH WIND       PRES   REMARKS
LA CROSSE      CLOUDY    25  17  72 W8        29.95F WCI  16
SPARTA         CLOUDY    22  15  76 W6        29.94F WCI  14
VIROQUA        CLOUDY    21  18  88 W10       29.91F WCI  10
BOSCOBEL       CLOUDY    25  16  68 VRB6      29.98F WCI  18
PRAIRIE DU CHI CLOUDY    26  17  68 W10       29.99F WCI  16
PLATTEVILLE    CLOUDY    25  19  77 W14G21    29.97S WCI  13
$$

WIZ056-057-062-063-064-067-068-150800-
SOUTH CENTRAL WISCONSIN

CITY           SKY/WX    TMP DP  RH WIND       PRES   REMARKS
REEDSBURG      MIX PCPN  23  17  78 W13G21    29.91F WCI  11
BARABOO/DELLS  CLOUDY    23  17  76 W6        29.91F WCI  16
LONE ROCK      NOT AVBL
MINERAL POINT  CLOUDY    27  19  74 W17G24    29.93F WCI  14
MADISON        CLOUDY    24  16  71 W6        29.91F WCI  17
MIDDLETON      CLOUDY    26  18  73 W10       29.92F WCI  16
WATERTOWN      CLOUDY    23  17  78 SW8       29.92F WCI  13
MONROE         CLOUDY    25  18  74 SW13      29.93F WCI  13
JANESVILLE     CLOUDY    27  18  69 SW9       29.94F WCI  17
$$

WIZ051-052-058>065-066-070>072-150800-
SOUTHEAST WISCONSIN

CITY           SKY/WX    TMP DP  RH WIND       PRES   REMARKS
MILWAUKEE      CLOUDY    22  14  71 S9        29.94F WCI  12
WAUKESHA       CLOUDY    19  12  73 SW7       29.93F WCI  10
MILWAUKEE/TIMM CLOUDY    21  12  68 SW7       29.94F WCI  13
RACINE         CLOUDY    22  14  71 SW10      29.96F WCI  11
BURLINGTON     CLOUDY    22  17  80 SW9       29.95F WCI  12
KENOSHA        CLOUDY    23  13  65 SW9       29.95F WCI  13
FOND DU LAC    CLOUDY    22  13  68 SW7       29.89F WCI  13
SHEBOYGAN      CLOUDY    20  14  77 SW8       29.90F WCI  10
WEST BEND      CLOUDY    21  14  73 SW7       29.91F WCI  13
JUNEAU         CLOUDY    21  15  75 SW7       29.92F WCI  13
$$

LSZ147-162-150800-
LAKE SUPERIOR

STATION/POSITION TIME  TEMP    WIND        PRES    WAVE
                       AIR SEA DIR/SP/G            HT/PER
                 (UTC) (F)     (DEG/KT/KT) (MB)    (FT/S)
DEVILS ISLAND    0600   19     290/ 12/ 15 1012.4F
SAXON HARBOR     0640   17                 1011.2F
$$

LMZ867-665-643>646-150800-
LAKE MICHIGAN

STATION/POSITION TIME  TEMP    WIND        PRES    WAVE
                       AIR SEA DIR/SP/G            HT/PER
                 (UTC) (F)     (DEG/KT/KT) (MB)    (FT/S)
NORTHPORT PIER   0640   23      CALM  /  7 1010.8F
KEWAUNEE LAKESHO 0630   20     230/  7/ 10 1011.6F
SHEBOYGAN LAKESH 0600   22     210/ 10/ 12 1014.6F
PORT WASHINGTON  0640   22     240/  4/  7 1014.6F
MILWAUKEE LAKESH 0630   22     220/  8/  9   N/A
KENOSHA   LAKESH 0600   22     230/  7/ 12 1015.6
$$

TC  - TEMPERATURE IN CELSIUS
VSB - VISIBILITY IN STATUTE MILES
WCI - WIND CHILL INDEX
HX  - HEAT INDEX





USA.gov is the U.S. government's official web portal to all federal, state and local government web resources and services.